Wind_Speed
34 34 34 34 34 34 31 28 28 28 28 28 27 27 26 26 25 24 23 21 20 20 20 20 20 20 19 19 19 18 18 18 18 18 19 19 19 19 19 19 19 19 20 19 19 19 19 19 18
35 35 35 35 35 34 31 29 29 29 29 29 29 28 27 27 25 24 23 23 22 22 22 22 22 21 21 21 20 20 19 19 19 19 20 20 21 21 21 20 21 21 21 21 21 21 21 20 20
35 36 36 36 36 33 31 30 30 30 30 31 30 29 28 27 26 25 25 24 23 23 23 23 22 22 22 22 21 21 21 21 21 21 21 21 21 22 22 22 22 22 22 22 22 22 22 22 22
36 36 38 38 36 33 32 31 32 31 31 31 31 30 29 28 27 26 26 25 24 23 24 23 23 23 23 23 23 23 23 23 22 22 22 22 22 22 23 23 23 24 24 24 24 24 24 24 24
37 38 38 38 36 33 32 33 33 33 32 32 32 31 30 29 28 27 26 25 25 24 24 24 24 23 23 23 23 23 23 23 24 24 24 24 24 24 24 24 24 25 25 25 26 26 26 25 25
38 38 39 37 35 34 34 34 34 34 33 33 32 32 30 29 28 27 26 26 25 25 25 25 25 25 24 25 25 24 25 25 25 25 25 25 25 25 25 25 25 26 26 27 27 27 27 27 27
39 39 38 37 35 34 34 35 36 35 34 33 33 32 31 30 29 29 28 27 26 26 26 25 25 25 25 25 25 25 25 25 25 26 26 25 25 25 26 26 26 27 27 27 28 28 28 28 28
39 39 39 37 36 34 35 36 37 36 35 34 33 32 31 31 30 30 29 28 27 27 27 26 26 25 25 26 26 26 26 26 27 27 27 26 26 26 26 27 27 27 27 27 28 28 28 28 29
39 40 38 36 36 35 36 37 37 36 35 34 34 33 32 31 31 30 30 29 28 28 27 27 27 27 26 26 26 27 27 27 27 27 27 27 27 27 27 27 27 27 28 28 28 28 28 29 29
39 38 35 35 36 35 36 36 36 35 35 34 33 33 32 31 31 30 30 29 29 29 28 28 28 28 27 27 27 27 27 27 28 28 28 28 28 28 28 28 28 29 28 28 28 28 29 29 29
38 36 35 36 36 35 36 36 35 35 35 34 33 33 33 32 31 31 30 30 30 29 29 29 29 29 29 28 28 28 28 28 28 28 28 28 29 29 29 29 29 29 29 29 29 29 29 30 30
38 36 36 36 37 36 36 36 36 35 34 34 34 34 33 32 31 31 31 31 30 29 29 29 30 29 29 29 28 28 28 28 28 28 28 29 29 29 29 30 30 30 30 30 30 30 30 31 32
39 36 37 37 38 37 37 36 36 35 34 34 34 34 33 32 32 32 32 31 30 30 30 30 30 29 29 29 29 29 29 29 29 29 29 30 30 30 30 30 30 30 31 31 31 32 32 33 33
38 38 38 38 38 38 37 37 36 34 35 35 34 33 33 33 32 32 32 31 31 30 30 30 30 30 30 29 29 30 29 29 29 29 29 29 29 30 30 30 30 30 31 32 33 33 34 34 35
39 39 39 38 38 38 39 38 36 35 36 35 34 34 34 33 33 32 32 32 32 31 31 31 30 30 30 30 30 30 29 29 29 29 29 29 29 29 29 30 30 31 32 32 33 34 35 36 36
40 41 41 39 39 39 40 38 36 36 36 35 35 35 34 33 33 32 32 32 32 31 31 31 31 31 31 30 30 30 30 30 30 30 30 30 30 30 30 31 31 32 33 34 35 36 36 36 37
41 41 40 39 39 39 40 38 37 37 37 36 36 35 34 34 33 32 32 32 32 32 32 31 31 31 31 31 31 31 31 31 31 31 31 31 31 31 31 32 32 33 34 35 36 37 37 37 38
40 40 40 39 39 40 40 39 38 38 37 37 36 36 35 34 33 33 32 32 32 32 32 32 32 32 31 31 31 32 32 32 32 32 32 31 31 32 32 32 33 34 35 35 36 37 38 38 39
40 41 41 40 40 40 40 40 38 38 38 36 36 36 35 34 34 33 33 32 32 32 32 31 31 31 31 31 31 32 32 32 32 32 32 32 32 32 33 34 34 35 36 36 37 38 38 39 40
40 40 40 40 40 41 41 40 39 38 37 37 36 36 35 35 34 34 33 32 32 31 31 31 31 31 31 31 32 32 33 33 33 33 33 33 33 34 35 35 36 36 37 37 38 39 39 40 42
39 39 39 40 40 41 41 41 39 38 38 38 37 36 36 35 35 34 34 33 32 32 31 31 31 31 31 31 32 33 33 33 33 34 34 34 35 35 36 37 37 37 38 38 39 40 41 42 44
38 38 38 39 41 41 41 41 40 39 38 38 37 36 36 36 35 35 34 33 32 32 32 31 31 31 31 31 32 32 33 33 33 34 35 35 36 36 37 38 38 38 39 40 41 41 43 44 45
37 36 37 38 40 41 41 42 40 39 38 37 37 36 36 36 35 34 34 33 32 31 31 31 31 31 31 32 32 33 33 33 34 35 35 36 37 37 38 39 39 39 40 41 41 42 42 44 44
36 35 36 37 39 41 40 41 40 38 37 37 37 36 36 36 35 34 34 34 33 32 32 32 31 31 32 32 33 33 33 34 35 36 36 37 37 38 39 40 40 40 41 41 41 42 43 44 45
37 36 36 37 39 41 39 41 39 37 37 36 36 36 36 36 36 35 35 34 34 33 33 33 32 32 32 33 33 34 34 35 35 36 37 37 37 38 39 40 40 41 41 41 41 42 43 44 44
37 37 37 37 38 38 38 39 38 36 36 36 36 36 36 36 36 36 35 34 34 34 34 33 33 33 33 33 34 34 35 36 36 36 37 37 38 39 39 40 41 41 41 41 41 42 44 44 44
37 37 37 37 38 37 38 38 37 35 35 35 35 35 35 35 35 35 35 35 34 34 34 34 34 34 34 34 35 35 36 36 36 36 37 37 38 39 40 40 40 40 40 41 41 43 44 44 45
36 35 36 37 37 37 37 37 37 35 33 34 34 34 34 35 35 35 35 35 34 34 35 35 35 35 35 35 35 36 36 36 37 37 37 38 38 39 39 39 39 40 40 41 42 43 44 45 46
36 36 36 36 36 36 36 36 35 34 33 33 33 33 33 33 34 34 34 34 34 34 34 34 35 35 35 35 36 36 36 37 37 37 38 38 38 39 39 39 40 40 41 42 43 44 45 45 45
34 35 36 37 37 36 36 36 33 33 33 33 33 33 33 33 33 33 34 34 34 34 34 34 35 35 35 35 36 36 37 37 37 38 38 39 39 40 40 40 41 41 42 42 43 44 45 45 45
Wind_Direction
236 236 236 235 236 237 237 235 235 235 235 236 236 237 238 240 242 244 244 244 244 245 247 248 250 251 252 253 254 255 255 256 256 256 258 260 262 263 262 262 262 263 265 266 268 269 271 273 275
236 236 236 236 237 237 236 235 235 236 236 236 237 237 238 240 241 242 243 244 244 245 246 248 249 250 252 253 254 254 255 256 257 258 260 261 263 263 263 263 263 264 265 266 267 269 270 272 274
236 236 236 237 238 238 237 236 236 236 236 237 237 238 238 239 240 241 241 243 243 244 245 246 248 249 251 252 253 254 255 256 258 260 261 263 263 263 263 264 264 264 265 266 267 268 270 271 272
237 237 237 237 238 238 237 236 237 236 236 237 238 238 238 239 239 240 240 242 243 243 245 246 248 249 251 252 252 254 255 257 259 261 263 264 263 263 263 263 263 264 265 266 268 268 269 270 270
237 237 238 238 238 237 237 237 237 237 237 237 238 239 239 238 239 239 240 241 242 243 244 246 248 250 251 252 253 254 255 257 259 261 262 263 264 264 263 263 263 264 265 267 268 269 269 270 270
239 239 239 239 239 237 237 236 236 236 236 237 238 238 238 238 238 239 240 242 243 244 245 247 249 250 251 252 254 255 256 258 260 261 262 262 263 263 264 264 265 266 267 268 269 269 269 270 270
240 239 240 240 238 236 236 236 237 237 235 236 237 237 236 238 238 239 240 242 243 245 247 248 250 251 252 253 255 256 257 259 260 261 261 262 263 264 265 266 267 268 269 270 270 269 270 270 271
240 240 239 239 238 236 236 237 237 237 236 234 235 236 236 237 238 239 240 242 244 246 248 249 250 251 253 254 256 257 258 259 260 261 261 261 262 264 265 266 268 269 270 271 271 271 270 270 270
240 240 239 238 238 236 236 237 236 236 236 235 235 236 236 236 238 239 240 243 245 246 248 249 249 251 253 255 256 257 258 259 259 259 259 261 262 263 265 266 268 270 270 271 272 272 272 271 272
239 239 238 237 237 235 234 235 235 235 235 235 235 236 236 237 237 239 240 242 244 246 247 248 250 251 253 255 256 257 258 259 259 258 259 261 263 264 265 267 269 270 271 271 271 272 272 273 273
238 237 235 235 235 234 233 233 233 233 234 236 236 236 237 236 236 237 239 242 244 246 247 249 250 252 253 254 256 257 258 259 259 259 260 262 264 265 266 268 269 270 271 271 272 272 273 274 275
237 235 234 234 233 233 232 233 234 234 234 235 236 236 237 236 237 238 240 242 244 246 247 249 251 252 252 254 256 257 259 260 260 260 261 262 264 266 267 268 269 269 270 270 271 272 274 275 276
235 233 233 233 233 233 232 232 233 234 234 235 237 238 238 238 238 239 240 242 244 246 248 249 250 252 253 255 257 258 259 260 260 260 261 263 264 265 266 268 268 269 270 271 272 274 275 275 276
234 232 232 232 232 232 232 232 233 233 235 235 236 238 239 239 239 240 241 242 244 246 247 248 250 251 254 256 257 257 259 259 259 260 262 264 265 265 267 268 269 270 271 272 273 274 275 276 277
234 232 231 232 232 232 233 232 233 234 235 235 236 238 239 240 240 241 242 242 243 244 246 248 249 251 253 256 257 257 257 258 259 260 262 263 265 266 267 269 271 271 272 274 275 275 276 277 278
235 234 233 232 233 233 234 233 232 234 235 235 236 238 239 240 240 241 241 242 243 244 245 248 250 251 254 255 256 257 257 258 259 260 262 264 265 267 269 270 271 272 273 275 276 276 277 278 279
234 234 234 234 234 234 235 233 232 233 234 235 236 238 239 240 240 240 242 242 244 245 246 248 249 251 253 255 255 256 257 258 259 261 262 264 267 268 269 270 271 273 274 276 277 277 278 279 279
235 235 235 235 235 235 235 234 233 235 235 235 236 237 238 239 240 240 241 243 244 246 247 248 249 251 253 254 255 257 258 259 260 261 262 265 267 269 271 272 273 274 276 277 278 279 279 280 280
235 235 235 235 236 236 235 235 234 235 235 235 236 237 238 238 239 240 241 243 245 246 248 248 249 251 253 255 256 257 257 259 260 261 263 265 268 270 272 274 275 276 277 279 280 280 281 282 282
234 235 235 235 236 237 236 235 234 234 235 235 236 237 237 238 239 240 241 243 245 246 247 249 250 252 253 255 256 257 257 259 260 262 264 267 269 271 274 275 276 278 279 280 281 281 282 283 283
234 235 235 236 236 237 237 236 234 234 235 235 236 236 237 238 239 240 241 242 244 246 248 249 251 252 253 255 256 257 258 261 262 264 266 268 270 272 274 275 277 278 280 282 282 283 283 284 285
233 234 236 236 236 237 237 238 234 234 235 236 236 237 237 238 239 240 241 242 244 246 247 249 251 252 253 254 255 257 260 262 264 266 268 270 272 273 274 275 277 278 280 282 284 284 284 285 286
233 234 236 236 238 238 237 239 235 234 235 236 237 237 237 238 239 239 240 241 242 244 247 249 251 253 254 255 256 258 260 263 265 267 269 272 273 275 276 276 277 279 280 282 284 284 286 287 288
232 233 235 236 237 238 237 240 237 236 236 236 236 237 237 238 238 238 239 240 241 244 247 249 251 253 255 256 257 259 261 264 267 269 271 273 274 276 277 277 278 280 281 283 283 284 286 288 289
231 232 233 235 237 238 237 239 239 237 237 237 236 237 237 238 238 237 238 241 243 245 247 249 251 254 256 258 259 261 263 266 268 271 272 274 275 277 278 279 279 281 282 282 283 285 287 289 289
230 231 233 236 238 239 238 239 238 239 237 237 237 237 237 238 238 239 240 242 244 245 247 249 252 254 257 259 260 263 265 267 269 271 272 274 276 277 279 280 280 281 282 283 284 286 288 289 290
229 229 231 235 238 240 239 238 238 238 238 237 237 236 236 237 238 240 241 243 244 246 248 250 252 255 257 259 261 264 266 267 268 270 272 274 277 278 280 281 281 281 282 283 285 287 288 289 290
228 228 229 232 236 240 240 240 240 238 238 238 237 237 237 237 238 240 242 244 245 247 249 251 253 256 258 260 261 263 265 266 268 270 272 275 277 279 280 281 281 281 282 284 286 288 289 290 290
226 225 228 230 234 238 240 241 241 241 239 239 239 238 238 239 239 241 243 245 246 247 249 252 254 256 258 260 261 263 264 266 268 270 272 274 277 279 279 280 281 281 283 285 286 288 290 290 291
227 227 229 232 233 236 240 241 240 241 240 240 239 238 238 239 240 242 243 245 246 248 250 252 253 255 257 259 261 263 265 267 269 270 272 275 278 279 279 280 281 282 283 285 286 289 290 291 291
Height
5805 5808 5810 5813 5815 5818 5820 5825 5827 5829 5830 5832 5834 5835 5837 5840 5842 5846 5846 5847 5848 5849 5850 5851 5852 5854 5854 5855 5856 5857 5858 5858 5859 5860 5861 5861 5862 5862 5863 5863 5863 5863 5863 5863 5863 5863 5863 5862 5862
5799 5802 5805 5807 5809 5812 5817 5820 5822 5824 5825 5827 5829 5831 5833 5835 5837 5840 5841 5842 5844 5845 5846 5847 5849 5850 5851 5852 5853 5854 5855 5855 5856 5857 5857 5858 5859 5859 5859 5860 5860 5860 5860 5860 5860 5859 5859 5859 5859
5793 5795 5798 5801 5803 5807 5812 5815 5817 5818 5820 5821 5824 5826 5828 5831 5833 5835 5836 5838 5839 5841 5842 5844 5845 5846 5847 5848 5849 5850 5851 5852 5853 5853 5854 5855 5855 5855 5856 5856 5856 5856 5856 5856 5856 5856 5856 5855 5855
5786 5789 5792 5795 5798 5803 5806 5809 5810 5812 5814 5816 5818 5820 5823 5826 5828 5830 5831 5833 5835 5836 5838 5839 5841 5842 5843 5844 5845 5846 5847 5848 5849 5850 5850 5851 5851 5852 5852 5852 5852 5852 5852 5852 5852 5852 5851 5851 5851
5779 5782 5785 5788 5793 5797 5800 5802 5804 5806 5809 5811 5813 5815 5818 5820 5822 5825 5827 5828 5830 5832 5833 5835 5836 5838 5839 5840 5841 5842 5843 5844 5845 5846 5846 5846 5847 5847 5847 5848 5848 5848 5848 5848 5847 5847 5847 5847 5847
5772 5775 5778 5782 5787 5791 5793 5795 5797 5800 5803 5805 5808 5810 5812 5815 5817 5820 5822 5824 5826 5827 5829 5830 5832 5833 5834 5836 5837 5838 5839 5840 5840 5841 5841 5842 5842 5842 5843 5843 5843 5843 5843 5843 5842 5842 5842 5842 5842
5766 5768 5771 5776 5780 5784 5786 5788 5790 5793 5797 5800 5802 5804 5807 5809 5812 5814 5817 5819 5821 5822 5824 5826 5827 5829 5830 5831 5832 5833 5834 5835 5835 5836 5836 5837 5837 5837 5838 5838 5838 5838 5838 5837 5837 5837 5837 5837 5836
5757 5761 5764 5768 5773 5777 5779 5781 5784 5787 5790 5794 5796 5798 5802 5804 5806 5809 5811 5813 5815 5817 5819 5821 5822 5824 5825 5826 5827 5828 5829 5830 5830 5831 5831 5832 5832 5832 5832 5832 5832 5832 5832 5832 5832 5831 5831 5831 5831
5749 5753 5757 5762 5766 5770 5771 5773 5777 5780 5783 5786 5789 5793 5796 5798 5800 5803 5806 5808 5810 5812 5814 5816 5817 5819 5820 5821 5822 5823 5823 5824 5825 5825 5826 5826 5827 5827 5827 5827 5827 5827 5827 5827 5826 5826 5825 5825 5825
5741 5746 5752 5755 5758 5761 5764 5766 5770 5773 5776 5780 5783 5786 5789 5792 5795 5798 5800 5802 5804 5806 5808 5810 5812 5813 5814 5815 5816 5817 5818 5818 5819 5819 5820 5820 5821 5821 5822 5822 5822 5821 5821 5821 5821 5820 5820 5819 5819
5734 5739 5744 5747 5750 5753 5756 5759 5763 5766 5770 5774 5777 5780 5782 5785 5788 5791 5794 5796 5798 5801 5803 5804 5806 5807 5809 5810 5811 5811 5812 5813 5813 5814 5814 5815 5815 5815 5816 5816 5816 5815 5815 5815 5815 5814 5814 5813 5812
5727 5732 5735 5739 5742 5745 5749 5752 5756 5760 5764 5767 5769 5772 5776 5779 5782 5785 5787 5790 5792 5794 5796 5798 5799 5801 5802 5803 5805 5805 5806 5807 5807 5808 5808 5809 5809 5809 5809 5810 5809 5809 5809 5809 5808 5808 5807 5807 5806
5719 5724 5727 5731 5734 5737 5741 5745 5748 5753 5757 5759 5762 5766 5769 5773 5776 5778 5781 5784 5786 5788 5790 5792 5793 5795 5796 5797 5798 5799 5800 5801 5801 5802 5802 5803 5803 5803 5803 5803 5803 5803 5803 5802 5802 5801 5801 5800 5799
5712 5715 5719 5722 5726 5729 5733 5737 5741 5746 5749 5752 5756 5759 5762 5766 5769 5772 5774 5777 5779 5781 5783 5785 5787 5788 5789 5791 5792 5793 5794 5794 5795 5795 5796 5796 5796 5796 5797 5797 5796 5796 5796 5795 5795 5794 5793 5792 5791
5703 5707 5711 5715 5718 5722 5726 5730 5735 5739 5742 5745 5749 5752 5755 5759 5762 5765 5767 5770 5772 5774 5776 5778 5780 5781 5783 5784 5785 5786 5787 5788 5788 5789 5789 5790 5790 5790 5790 5790 5790 5789 5788 5788 5787 5786 5785 5785 5783
5694 5698 5702 5708 5711 5714 5719 5724 5729 5730 5734 5738 5741 5744 5748 5751 5755 5757 5760 5762 5765 5767 5769 5771 5773 5774 5776 5777 5778 5779 5780 5781 5782 5782 5783 5783 5783 5783 5783 5783 5782 5782 5781 5780 5779 5778 5777 5776 5775
5685 5689 5695 5700 5703 5706 5710 5715 5720 5722 5726 5730 5734 5737 5740 5744 5747 5750 5753 5755 5758 5760 5762 5764 5765 5767 5769 5770 5771 5772 5773 5774 5775 5775 5776 5776 5776 5776 5776 5775 5775 5774 5773 5772 5771 5770 5769 5768 5766
5679 5683 5687 5691 5695 5698 5701 5707 5711 5714 5718 5723 5726 5729 5733 5736 5740 5743 5745 5748 5750 5752 5754 5756 5758 5760 5761 5763 5764 5765 5766 5767 5768 5768 5768 5769 5769 5768 5768 5768 5767 5766 5765 5764 5762 5761 5760 5758 5757
5669 5673 5677 5683 5686 5689 5693 5698 5703 5706 5710 5715 5719 5722 5725 5729 5732 5735 5738 5740 5743 5745 5747 5749 5751 5752 5754 5755 5757 5758 5759 5759 5760 5760 5761 5761 5761 5760 5760 5759 5759 5757 5756 5755 5753 5752 5750 5749 5747
5660 5664 5669 5674 5677 5680 5684 5689 5694 5698 5702 5707 5710 5714 5718 5721 5724 5728 5730 5733 5735 5738 5740 5742 5743 5745 5747 5748 5749 5750 5751 5751 5752 5753 5753 5753 5752 5752 5751 5751 5750 5748 5747 5745 5744 5742 5740 5738 5736
5651 5656 5661 5665 5668 5671 5675 5680 5686 5690 5694 5698 5702 5706 5710 5713 5716 5720 5723 5725 5728 5731 5733 5734 5736 5738 5739 5740 5741 5742 5743 5744 5744 5745 5745 5744 5744 5743 5742 5741 5740 5739 5737 5736 5734 5731 5729 5727 5725
5643 5648 5652 5655 5659 5662 5667 5670 5678 5682 5686 5690 5694 5698 5702 5705 5708 5712 5715 5718 5720 5723 5725 5727 5728 5730 5731 5732 5733 5734 5735 5736 5736 5736 5736 5735 5735 5734 5733 5732 5730 5729 5727 5726 5723 5721 5718 5716 5713
5635 5639 5643 5646 5650 5653 5658 5661 5669 5674 5678 5682 5686 5690 5693 5697 5700 5704 5707 5710 5712 5715 5717 5719 5721 5722 5723 5724 5725 5726 5727 5728 5728 5727 5727 5726 5725 5724 5723 5721 5720 5719 5717 5715 5713 5710 5708 5705 5702
5627 5631 5634 5637 5640 5644 5651 5653 5659 5665 5670 5674 5678 5681 5685 5688 5692 5695 5698 5701 5704 5707 5709 5711 5713 5714 5715 5716 5717 5718 5719 5719 5719 5718 5718 5717 5715 5714 5712 5711 5709 5708 5706 5704 5702 5700 5697 5694 5691
5618 5623 5626 5628 5630 5636 5642 5644 5651 5657 5661 5665 5669 5673 5676 5679 5683 5687 5690 5694 5697 5699 5701 5703 5705 5706 5707 5708 5709 5709 5710 5710 5709 5709 5708 5707 5705 5704 5702 5700 5698 5697 5695 5693 5691 5689 5686 5683 5680
5610 5614 5619 5621 5624 5629 5633 5636 5643 5648 5652 5656 5660 5664 5667 5671 5675 5678 5682 5685 5688 5690 5693 5695 5696 5698 5699 5699 5700 5700 5700 5700 5700 5699 5698 5696 5695 5693 5691 5689 5687 5686 5684 5683 5681 5678 5676 5673 5669
5601 5605 5610 5614 5616 5620 5624 5629 5635 5639 5643 5647 5651 5655 5659 5663 5666 5670 5673 5676 5679 5682 5684 5686 5688 5689 5690 5690 5691 5691 5690 5690 5689 5689 5688 5686 5684 5683 5681 5679 5677 5675 5674 5672 5670 5668 5665 5662 5658
5594 5598 5602 5605 5608 5612 5616 5621 5626 5631 5635 5639 5643 5647 5651 5654 5658 5661 5664 5667 5670 5673 5675 5677 5678 5680 5680 5681 5681 5681 5681 5680 5680 5679 5678 5676 5674 5672 5670 5668 5666 5665 5663 5661 5659 5657 5654 5651 5647
5587 5591 5594 5598 5601 5605 5608 5615 5619 5623 5627 5631 5635 5638 5642 5646 5649 5653 5655 5658 5661 5663 5666 5668 5669 5670 5671 5671 5671 5671 5671 5671 5670 5669 5668 5666 5665 5663 5660 5659 5657 5655 5653 5651 5649 5646 5643 5640 5636
5579 5583 5587 5591 5594 5597 5601 5608 5611 5615 5619 5622 5626 5630 5633 5637 5640 5643 5646 5649 5652 5654 5656 5658 5659 5660 5661 5661 5662 5662 5661 5661 5660 5659 5658 5657 5655 5653 5651 5648 5646 5645 5642 5640 5638 5635 5632 5629 5625